McConnell AFB, KS

9:01 AM CDT on September 16, 2019 (GMT -0500)
McConnell Air Force Base

Weather History for KIAB - May, 2019

Change the Weather History Date:

Monday, May 20, 2019

  Actual Average Record
Temperature  
Mean Temperature 54 °F -  
Max Temperature 58 °F 75 °F 94 °F (2014)
Min Temperature 49 °F 55 °F 46 °F (2000)
Degree Days  
Heating Degree Days 12    
Growing Degree Days 4 (Base 50)    
Moisture  
Dew Point 49 °F    
Average Humidity 90    
Maximum Humidity 100    
Minimum Humidity 68    
Precipitation  
Precipitation 1.59 in - - ()
Sea Level Pressure  
Sea Level Pressure 29.81 in    
Wind  
Wind Speed 17 mph (ENE)    
Max Wind Speed 31 mph    
Max Gust Speed 45 mph    
Visibility 8 miles    
Events Rain , Thunderstorm    
Averages and records for this station are not official NWS values.
T = Trace of Precipitation, MM = Missing Value Source: NWS Daily Summary

Daily Weather History Graph

Daily Weather History Graph

Search for Another Location

Airport or City:

Astronomy

May. 20, 2019 Rise Set
Actual Time 6:15 AM CDT 8:35 PM CDT
Civil Twilight 5:46 AM CDT 9:05 PM CDT
Nautical Twilight 5:09 AM CDT 9:42 PM CDT
Astronomical Twilight 4:29 AM CDT 10:22 PM CDT
Moon 10:37 PM CDT (5/20) 7:45 AM CDT (5/20)
Length of Visible Light 15h 19m
Length of Day
14h 19m
Waning Gibbous, 96% of the Moon is Illuminated
May 20
Waning Gibbous
May 26
Last Quarter
Jun 3
New
Jun 10
First Quarter
Jun 17
Full

Hourly Weather History & Observations

Time (CDT) Temp. Dew Point Humidity Pressure Visibility Wind Dir Wind Speed Gust Speed Precip Events Conditions
12:56 AM 58.1 °F 48.4 °F 70% 29.99 in 10.0 mi ENE 8.1 mph - N/A   Clear
1:56 AM 56.8 °F 47.8 °F 72% 30.01 in 10.0 mi ENE 5.8 mph - N/A   Clear
2:56 AM 55.6 °F 48.7 °F 78% 30.00 in 10.0 mi East 8.1 mph - N/A   Clear
3:56 AM 55.6 °F 47.5 °F 74% 30.00 in 10.0 mi ENE 8.1 mph - N/A   Clear
4:56 AM 55.0 °F 46.9 °F 74% 29.99 in 10.0 mi ENE 13.8 mph - N/A   Scattered Clouds
5:56 AM 53.2 °F 45.1 °F 74% 29.98 in 10.0 mi ENE 18.4 mph - N/A   Clear
6:56 AM 51.8 °F 43.7 °F 74% 30.00 in 10.0 mi ENE 13.8 mph 19.6 mph N/A   Clear
7:56 AM 51.8 °F 41.5 °F 68% 29.99 in 10.0 mi ENE 15.0 mph - N/A   Partly Cloudy
8:56 AM 52.0 °F 41.7 °F 68% 29.99 in 10.0 mi ENE 13.8 mph - N/A   Overcast
9:56 AM 52.0 °F 42.4 °F 70% 29.91 in 10.0 mi ENE 19.6 mph 26.5 mph N/A   Overcast
10:53 AM 51.8 °F 42.8 °F 71% 29.93 in 10.0 mi ENE 18.4 mph 29.9 mph N/A Thunderstorm Thunderstorm
10:55 AM 51.8 °F 42.8 °F 71% 29.91 in 10.0 mi ENE 18.4 mph 29.9 mph N/A Rain , Thunderstorm Light Thunderstorms and Rain
10:56 AM 52.3 °F 43.2 °F 71% 29.91 in 10.0 mi ENE 19.6 mph 29.9 mph N/A Rain , Thunderstorm Light Thunderstorms and Rain
11:25 AM 51.8 °F 44.6 °F 76% 29.96 in 2.8 mi East 11.5 mph 24.2 mph N/A Rain , Thunderstorm Heavy Thunderstorms and Rain
11:29 AM 50.0 °F 44.6 °F 82% 30.01 in 3.0 mi ENE 5.8 mph 24.2 mph N/A Rain , Thunderstorm Thunderstorms and Rain
11:47 AM 50.0 °F 46.4 °F 87% 29.97 in 6.0 mi North 9.2 mph - N/A Rain Heavy Rain
11:56 AM 49.5 °F 46.4 °F 89% 29.99 in 4.0 mi NNE 16.1 mph - 0.27 in Rain Heavy Rain
11:58 AM 50.0 °F 46.4 °F 87% 29.99 in 2.8 mi NNE 13.8 mph - N/A Rain Heavy Rain
12:08 PM 50.0 °F 46.4 °F 87% 30.01 in 3.0 mi NNE 12.7 mph - N/A Rain , Thunderstorm Heavy Rain
12:12 PM 50.0 °F 46.4 °F 87% 29.98 in 4.0 mi NNE 19.6 mph - N/A Rain , Thunderstorm Heavy Thunderstorms and Rain
12:18 PM 50.0 °F 46.4 °F 87% 29.99 in 2.8 mi NNE 17.3 mph - N/A Rain , Thunderstorm Heavy Thunderstorms and Rain
12:24 PM 50.0 °F 46.4 °F 87% 29.97 in 3.0 mi NE 17.3 mph - N/A Rain , Thunderstorm Heavy Thunderstorms and Rain
12:27 PM 50.0 °F 46.4 °F 87% 29.95 in 3.0 mi NE 19.6 mph - N/A Rain , Thunderstorm Heavy Rain
12:42 PM 50.0 °F 48.2 °F 94% 29.92 in 2.5 mi ENE 21.9 mph 29.9 mph N/A Rain , Thunderstorm Heavy Rain
12:45 PM 50.0 °F 48.2 °F 94% 29.92 in 2.0 mi ENE 20.7 mph 29.9 mph N/A Rain , Thunderstorm Heavy Thunderstorms and Rain
12:56 PM 49.1 °F 47.1 °F 93% 29.88 in 2.0 mi ENE 26.5 mph 35.7 mph 0.38 in Rain , Thunderstorm Heavy Thunderstorms and Rain
12:58 PM 50.0 °F 48.2 °F 94% 29.87 in 1.9 mi ENE 25.3 mph 35.7 mph N/A Rain , Thunderstorm Heavy Thunderstorms and Rain
1:00 PM 50.0 °F 48.2 °F 94% 29.88 in 2.0 mi ENE 23.0 mph 35.7 mph N/A Rain , Thunderstorm Heavy Thunderstorms and Rain
1:01 PM 50.0 °F 48.2 °F 94% 29.88 in 2.5 mi ENE 23.0 mph 35.7 mph N/A Rain Heavy Rain
1:03 PM 50.0 °F 48.2 °F 94% 29.89 in 3.0 mi ENE 26.5 mph 35.7 mph N/A Rain Rain
1:08 PM 50.0 °F 48.2 °F 94% 29.86 in 6.0 mi ENE 29.9 mph 36.8 mph N/A   Haze
1:09 PM 50.0 °F 48.2 °F 94% 29.86 in 6.0 mi ENE 31.1 mph 36.8 mph N/A Rain Light Rain
1:27 PM 50.0 °F 48.2 °F 94% 29.84 in 10.0 mi ENE 25.3 mph 36.8 mph N/A Rain Light Rain
1:31 PM 50.0 °F 48.2 °F 94% 29.83 in 10.0 mi ENE 24.2 mph 36.8 mph N/A   Overcast
1:33 PM 50.0 °F 48.2 °F 94% 29.83 in 9.0 mi ENE 21.9 mph 36.8 mph N/A Rain Light Rain
1:51 PM 50.0 °F 48.2 °F 94% 29.81 in 10.0 mi ENE 25.3 mph 36.8 mph N/A   Overcast
1:52 PM 50.0 °F 48.2 °F 94% 29.81 in 9.0 mi ENE 23.0 mph 35.7 mph N/A Rain Light Rain
1:59 PM 50.0 °F 48.2 °F 94% 29.81 in 10.0 mi ENE 23.0 mph 33.4 mph N/A   Overcast
2:19 PM 50.0 °F 48.2 °F 94% 29.75 in 10.0 mi East 25.3 mph 33.4 mph N/A Rain , Thunderstorm Light Rain
2:27 PM 50.0 °F 48.2 °F 94% 29.75 in 10.0 mi ENE 24.2 mph 33.4 mph N/A Rain , Thunderstorm Light Thunderstorms and Rain
2:28 PM 50.0 °F 48.2 °F 94% 29.75 in 10.0 mi ENE 21.9 mph 32.2 mph N/A Thunderstorm Thunderstorm
2:31 PM 51.8 °F 48.2 °F 88% 29.77 in 9.0 mi East 19.6 mph 31.1 mph N/A Rain , Thunderstorm Light Thunderstorms and Rain
2:53 PM 51.8 °F 50.0 °F 94% 29.86 in 8.0 mi NNW 16.1 mph 21.9 mph N/A Rain Heavy Rain
2:56 PM 51.8 °F 50.0 °F 94% 29.85 in 6.0 mi North 15.0 mph 21.9 mph 0.12 in Rain Heavy Rain
2:58 PM 51.8 °F 50.0 °F 94% 29.84 in 6.0 mi North 16.1 mph - N/A Rain Heavy Rain
3:00 PM 51.8 °F 48.2 °F 88% 29.83 in 7.0 mi North 13.8 mph 21.9 mph N/A Rain Heavy Rain
5:08 PM 50.0 °F 50.0 °F 100% 29.81 in 2.8 mi NNE 20.7 mph 26.5 mph N/A Rain Heavy Rain
5:23 PM 50.0 °F 48.2 °F 94% 29.80 in 8.0 mi NE 23.0 mph 31.1 mph N/A Rain , Thunderstorm Heavy Rain
5:41 PM 50.0 °F 48.2 °F 94% 29.77 in 7.0 mi NE 20.7 mph 34.5 mph N/A Rain , Thunderstorm Heavy Thunderstorms and Rain
5:56 PM 50.4 °F 48.7 °F 94% 29.76 in 8.0 mi ENE 27.6 mph 41.4 mph 0.24 in Rain , Thunderstorm Thunderstorms and Rain
5:57 PM 50.0 °F 48.2 °F 94% 29.76 in 8.0 mi NE 28.8 mph 41.4 mph N/A Rain , Thunderstorm Light Rain
6:11 PM 50.0 °F 48.2 °F 94% 29.75 in 10.0 mi NE 26.5 mph 34.5 mph N/A Rain , Thunderstorm Light Thunderstorms and Rain
6:26 PM 50.0 °F 48.2 °F 94% 29.77 in 4.0 mi ENE 27.6 mph 39.1 mph N/A Rain Heavy Rain
6:50 PM 50.0 °F 48.2 °F 94% 29.77 in 7.0 mi NE 18.4 mph 32.2 mph N/A Rain Rain
6:56 PM 50.5 °F 48.9 °F 94% 29.77 in 5.0 mi NE 19.6 mph 32.2 mph 0.13 in Rain Heavy Rain
7:25 PM 51.8 °F 50.0 °F 94% 29.73 in 4.0 mi North 19.6 mph 44.9 mph N/A Rain , Thunderstorm Heavy Rain
7:33 PM 51.8 °F 50.0 °F 94% 29.72 in 10.0 mi North 17.3 mph 39.1 mph N/A Rain , Thunderstorm Rain
7:37 PM 51.8 °F 50.0 °F 94% 29.71 in 10.0 mi NE 18.4 mph 27.6 mph N/A Rain , Thunderstorm Light Thunderstorms and Rain
7:38 PM 51.8 °F 50.0 °F 94% 29.71 in 10.0 mi ENE 17.3 mph 27.6 mph N/A Rain , Thunderstorm Light Thunderstorms and Rain
7:41 PM 51.8 °F 50.0 °F 94% 29.72 in 10.0 mi East 16.1 mph 27.6 mph N/A Rain , Thunderstorm Light Thunderstorms and Rain
7:46 PM 53.6 °F 50.0 °F 88% 29.72 in 10.0 mi East 21.9 mph 29.9 mph N/A Rain , Thunderstorm Light Thunderstorms and Rain
7:56 PM 52.7 °F 49.8 °F 90% 29.70 in 9.0 mi East 23.0 mph 39.1 mph 0.15 in Rain , Thunderstorm Light Thunderstorms and Rain
7:58 PM 51.8 °F 50.0 °F 94% 29.68 in 8.0 mi East 25.3 mph 39.1 mph N/A Rain , Thunderstorm Light Rain
8:10 PM 51.8 °F 50.0 °F 94% 29.66 in 7.0 mi East 20.7 mph 32.2 mph N/A Rain , Thunderstorm Light Thunderstorms and Rain
8:15 PM 51.8 °F 50.0 °F 94% 29.65 in 7.0 mi East 24.2 mph 33.4 mph N/A Rain , Thunderstorm Light Thunderstorms and Rain
8:25 PM 51.8 °F 50.0 °F 94% 29.64 in 8.0 mi East 27.6 mph 36.8 mph N/A Rain Light Rain
8:56 PM 53.1 °F 51.1 °F 93% 29.65 in 10.0 mi East 20.7 mph 31.1 mph 0.09 in Rain , Thunderstorm Light Rain
8:58 PM 53.6 °F 51.8 °F 94% 29.67 in 10.0 mi ESE 15.0 mph 31.1 mph N/A Rain , Thunderstorm Light Rain
9:09 PM 53.6 °F 51.8 °F 94% 29.73 in 10.0 mi East 15.0 mph 23.0 mph N/A Rain , Thunderstorm Light Rain
9:11 PM 53.6 °F 51.8 °F 94% 29.73 in 10.0 mi East 15.0 mph 23.0 mph N/A Rain , Thunderstorm Light Thunderstorms and Rain
9:26 PM 53.6 °F 51.8 °F 94% 29.75 in 7.0 mi East 18.4 mph 23.0 mph N/A Rain , Thunderstorm Light Rain
9:27 PM 53.6 °F 51.8 °F 94% 29.74 in 6.0 mi East 17.3 mph 23.0 mph N/A Rain , Thunderstorm Light Rain
9:30 PM 53.6 °F 51.8 °F 94% 29.74 in 6.0 mi East 19.6 mph - N/A Rain , Thunderstorm Thunderstorms and Rain
9:48 PM 53.6 °F 51.8 °F 94% 29.67 in 5.0 mi East 21.9 mph 29.9 mph N/A Rain Rain
9:55 PM 51.8 °F 51.8 °F 100% 29.65 in 9.0 mi East 19.6 mph 29.9 mph N/A Rain Light Rain
9:56 PM 52.5 °F 51.4 °F 96% 29.64 in 10.0 mi East 23.0 mph 29.9 mph 0.16 in Rain Light Rain
10:09 PM 53.6 °F 51.8 °F 94% 29.68 in 10.0 mi ESE 25.3 mph 29.9 mph N/A Rain Light Rain
10:29 PM 53.6 °F 51.8 °F 94% 29.68 in 10.0 mi ESE 23.0 mph 27.6 mph N/A Rain , Thunderstorm Light Thunderstorms and Rain
10:39 PM 53.6 °F 51.8 °F 94% 29.65 in 10.0 mi East 23.0 mph - N/A Rain , Thunderstorm Light Thunderstorms and Rain
10:56 PM 52.9 °F 52.3 °F 98% 29.62 in 10.0 mi East 17.3 mph 31.1 mph 0.04 in Rain Light Rain
10:59 PM 53.6 °F 51.8 °F 94% 29.62 in 10.0 mi East 17.3 mph 26.5 mph N/A   Overcast
11:16 PM 53.6 °F 53.6 °F 100% 29.62 in 10.0 mi East 18.4 mph 24.2 mph N/A Rain Light Rain
11:24 PM 53.6 °F 53.6 °F 100% 29.63 in 10.0 mi East 13.8 mph 24.2 mph N/A   Mostly Cloudy
11:29 PM 53.6 °F 53.6 °F 100% 29.66 in 10.0 mi East 12.7 mph - N/A   Mostly Cloudy
11:39 PM 53.6 °F 53.6 °F 100% 29.70 in 10.0 mi NE 4.6 mph - N/A   Mostly Cloudy
11:56 PM 54.1 °F 53.2 °F 97% 29.68 in 10.0 mi East 6.9 mph - 0.01 in   Overcast